• In Slovakia
  • List of Countries
  • For 7 days
  • Water Temperature
  • Satellite Maps
  • Weather Map
  • Weather Widgets
  • user-avatar
    Login

    Hourly Weather Mingachevir

    Today, 27 May, Sunday

    Time Temperature Precipitation Wind Pressure Humidity
    00:00 +24°C° 0.7 mm 2 mps 753 mmHg 71%
    01:00 +23°C° 0.3 mm 2 mps 753 mmHg 74%
    02:00 +23°C° 0.3 mm 2 mps 753 mmHg 76%
    03:00 +21°C° 0.3 mm 2 mps 754 mmHg 78%
    04:00 +23°C° 0.5 mm 2 mps 754 mmHg 76%
    05:00 +22°C° 0.5 mm 3 mps 755 mmHg 75%
    06:00 +22°C° 0.5 mm 3 mps 755 mmHg 73%
    07:00 +23°C° 0 mm 4 mps 756 mmHg 68%
    08:00 +25°C° 0 mm 5 mps 756 mmHg 63%
    09:00 +24°C° 0 mm 6 mps 756 mmHg 58%
    10:00 +26°C° 0 mm 6 mps 756 mmHg 55%
    11:00 +26°C° 0 mm 7 mps 757 mmHg 53%
    12:00 +27°C° 0 mm 7 mps 757 mmHg 50%
    13:00 +27°C° 0 mm 7 mps 757 mmHg 50%
    14:00 +27°C° 0 mm 7 mps 757 mmHg 50%
    15:00 +27°C° 0 mm 7 mps 757 mmHg 49%
    16:00 +26°C° 0 mm 7 mps 757 mmHg 51%
    17:00 +24°C° 0 mm 7 mps 757 mmHg 53%
    18:00 +23°C° 0 mm 7 mps 757 mmHg 55%
    19:00 +22°C° 0 mm 6 mps 758 mmHg 57%
    20:00 +21°C° 0 mm 6 mps 758 mmHg 59%
    21:00 +19°C° 0 mm 5 mps 759 mmHg 61%
    22:00 +19°C° 0 mm 4 mps 759 mmHg 62%
    23:00 +18°C° 0 mm 3 mps 759 mmHg 63%

    Tomorrow, 28 May, Monday

    Time Temperature Precipitation Wind Pressure Humidity
    00:00 +18°C° 0 mm 2 mps 759 mmHg 64%
    01:00 +17°C° 0 mm 2 mps 758 mmHg 65%
    02:00 +18°C° 0 mm 1 mps 758 mmHg 65%
    03:00 +18°C° 0 mm 1 mps 758 mmHg 66%
    04:00 +18°C° 0 mm 1 mps 757 mmHg 65%
    05:00 +19°C° 0 mm 1 mps 757 mmHg 63%
    06:00 +19°C° 0 mm 1 mps 757 mmHg 62%
    07:00 +21°C° 0 mm 1 mps 756 mmHg 58%
    08:00 +22°C° 0 mm 1 mps 756 mmHg 53%
    09:00 +24°C° 0 mm 2 mps 755 mmHg 49%
    10:00 +25°C° 0 mm 2 mps 754 mmHg 46%
    11:00 +27°C° 0 mm 2 mps 754 mmHg 43%
    12:00 +28°C° 0 mm 2 mps 753 mmHg 40%
    13:00 +29°C° 0 mm 2 mps 752 mmHg 39%
    14:00 +30°C° 0 mm 2 mps 752 mmHg 38%
    15:00 +30°C° 0 mm 2 mps 751 mmHg 36%
    16:00 +30°C° 0 mm 2 mps 751 mmHg 38%
    17:00 +29°C° 0 mm 2 mps 751 mmHg 40%
    18:00 +29°C° 0 mm 2 mps 751 mmHg 42%
    19:00 +28°C° 0 mm 2 mps 752 mmHg 45%
    20:00 +26°C° 0 mm 2 mps 752 mmHg 48%
    21:00 +25°C° 0 mm 2 mps 753 mmHg 50%
    22:00 +24°C° 0 mm 3 mps 753 mmHg 55%
    23:00 +22°C° 0 mm 3 mps 753 mmHg 60%

    Day after tomorrow, 29 May, Tuesday

    Time Temperature Precipitation Wind Pressure Humidity
    00:00 +22°C° 0 mm 3 mps 753 mmHg 64%
    01:00 +21°C° 0 mm 2 mps 753 mmHg 66%
    02:00 +21°C° 0 mm 2 mps 753 mmHg 68%
    03:00 +21°C° 0 mm 1 mps 753 mmHg 70%
    04:00 +22°C° 0 mm 1 mps 753 mmHg 69%
    05:00 +21°C° 0 mm 2 mps 753 mmHg 68%
    06:00 +23°C° 0 mm 2 mps 753 mmHg 67%
    07:00 +24°C° 0 mm 3 mps 753 mmHg 61%
    08:00 +26°C° 0 mm 4 mps 754 mmHg 55%
    09:00 +27°C° 0 mm 5 mps 754 mmHg 50%
    10:00 +28°C° 0 mm 5 mps 754 mmHg 47%
    11:00 +29°C° 0 mm 6 mps 753 mmHg 43%
    12:00 +30°C° 0 mm 6 mps 753 mmHg 40%
    13:00 +30°C° 0 mm 6 mps 753 mmHg 39%
    14:00 +30°C° 0 mm 6 mps 753 mmHg 38%
    15:00 +30°C° 0 mm 7 mps 752 mmHg 37%
    16:00 +29°C° 0 mm 7 mps 753 mmHg 37%
    17:00 +28°C° 0 mm 7 mps 753 mmHg 38%
    18:00 +27°C° 0 mm 7 mps 753 mmHg 39%
    19:00 +26°C° 0 mm 7 mps 754 mmHg 39%
    20:00 +24°C° 0 mm 6 mps 754 mmHg 39%
    21:00 +22°C° 0 mm 6 mps 755 mmHg 40%
    22:00 +22°C° 0.3 mm 5 mps 755 mmHg 44%
    23:00 +21°C° 0.3 mm 5 mps 755 mmHg 48%

    30 May, Wednesday

    Time Temperature Precipitation Wind Pressure Humidity
    00:00 +20°C° 0.3 mm 4 mps 755 mmHg 52%
    01:00 +19°C° 0.1 mm 4 mps 755 mmHg 55%
    02:00 +19°C° 0.1 mm 3 mps 755 mmHg 57%
    03:00 +18°C° 0.1 mm 3 mps 755 mmHg 60%
    04:00 +18°C° 0 mm 3 mps 755 mmHg 60%
    05:00 +19°C° 0 mm 3 mps 755 mmHg 60%
    06:00 +19°C° 0 mm 3 mps 755 mmHg 59%
    07:00 +20°C° 0 mm 3 mps 755 mmHg 55%
    08:00 +22°C° 0 mm 3 mps 755 mmHg 51%
    09:00 +23°C° 0 mm 4 mps 755 mmHg 46%
    10:00 +25°C° 0 mm 3 mps 754 mmHg 44%
    11:00 +26°C° 0 mm 3 mps 754 mmHg 41%
    12:00 +27°C° 0 mm 3 mps 754 mmHg 39%
    13:00 +28°C° 0 mm 3 mps 753 mmHg 38%
    14:00 +28°C° 0 mm 3 mps 753 mmHg 37%
    15:00 +29°C° 0 mm 3 mps 752 mmHg 36%
    16:00 +29°C° 0 mm 3 mps 752 mmHg 37%
    17:00 +28°C° 0 mm 3 mps 752 mmHg 38%
    18:00 +28°C° 0 mm 3 mps 752 mmHg 39%
    19:00 +27°C° 0 mm 3 mps 752 mmHg 41%
    20:00 +25°C° 0 mm 3 mps 752 mmHg 42%
    21:00 +24°C° 0 mm 3 mps 752 mmHg 44%
    22:00 +23°C° 0 mm 2 mps 752 mmHg 45%
    23:00 +23°C° 0 mm 2 mps 751 mmHg 45%

    31 May, Thursday

    Time Temperature Precipitation Wind Pressure Humidity
    00:00 +22°C° 0 mm 1 mps 751 mmHg 46%
    01:00 +22°C° 0 mm 1 mps 750 mmHg 46%
    02:00 +21°C° 0 mm 1 mps 750 mmHg 47%
    03:00 +21°C° 0 mm 1 mps 750 mmHg 48%
    04:00 +22°C° 0 mm 1 mps 749 mmHg 48%
    05:00 +21°C° 0 mm 2 mps 749 mmHg 48%
    06:00 +23°C° 0 mm 2 mps 749 mmHg 48%
    07:00 +24°C° 0 mm 2 mps 748 mmHg 45%
    08:00 +26°C° 0 mm 2 mps 748 mmHg 41%
    09:00 +27°C° 0 mm 3 mps 747 mmHg 38%
    10:00 +28°C° 0.1 mm 2 mps 747 mmHg 36%
    11:00 +29°C° 0.1 mm 2 mps 746 mmHg 34%
    12:00 +31°C° 0.1 mm 2 mps 745 mmHg 32%
    13:00 +31°C° 0.3 mm 2 mps 745 mmHg 32%
    14:00 +32°C° 0.3 mm 2 mps 744 mmHg 32%
    15:00 +32°C° 0.3 mm 2 mps 744 mmHg 32%
    16:00 +31°C° 0.8 mm 3 mps 744 mmHg 38%
    17:00 +30°C° 0.8 mm 3 mps 744 mmHg 45%
    18:00 +29°C° 0.8 mm 3 mps 743 mmHg 51%
    19:00 +28°C° 0.2 mm 3 mps 744 mmHg 54%
    20:00 +27°C° 0.2 mm 2 mps 745 mmHg 58%
    21:00 +26°C° 0.2 mm 1 mps 745 mmHg 61%
    22:00 +25°C° 0.8 mm 2 mps 745 mmHg 63%
    23:00 +25°C° 0.8 mm 3 mps 745 mmHg 65%

    1 June, Friday

    Time Temperature Precipitation Wind Pressure Humidity
    00:00 +24°C° 0.8 mm 3 mps 746 mmHg 67%
    01:00 +24°C° 0.1 mm 3 mps 745 mmHg 66%
    02:00 +22°C° 0.1 mm 3 mps 745 mmHg 65%
    03:00 +22°C° 0.1 mm 3 mps 745 mmHg 64%
    04:00 +22°C° 0 mm 3 mps 745 mmHg 62%
    05:00 +24°C° 0 mm 3 mps 746 mmHg 60%
    06:00 +23°C° 0 mm 4 mps 746 mmHg 59%
    07:00 +26°C° 0 mm 4 mps 746 mmHg 53%
    08:00 +28°C° 0 mm 5 mps 745 mmHg 48%
    09:00 +30°C° 0 mm 5 mps 745 mmHg 43%
    10:00 +32°C° 0 mm 5 mps 745 mmHg 40%
    11:00 +33°C° 0 mm 5 mps 744 mmHg 38%
    12:00 +34°C° 0 mm 4 mps 744 mmHg 35%
    13:00 +35°C° 0.1 mm 4 mps 743 mmHg 34%
    14:00 +35°C° 0.1 mm 4 mps 743 mmHg 33%
    15:00 +36°C° 0.1 mm 3 mps 743 mmHg 31%
    16:00 +35°C° 0 mm 3 mps 743 mmHg 34%
    17:00 +34°C° 0 mm 3 mps 743 mmHg 36%
    18:00 +32°C° 0 mm 2 mps 743 mmHg 38%
    19:00 +30°C° 1 mm 4 mps 744 mmHg 45%
    20:00 +28°C° 1 mm 5 mps 745 mmHg 53%
    21:00 +24°C° 1 mm 6 mps 745 mmHg 60%
    22:00 +24°C° 0.3 mm 6 mps 746 mmHg 61%
    23:00 +23°C° 0.3 mm 5 mps 746 mmHg 63%
    Show more